TimeMST,TemperatureF,Dew PointF,Humidity,Sea Level PressureIn,VisibilityMPH,Wind Direction,Wind SpeedMPH,Gust SpeedMPH,PrecipitationIn,Events,Conditions,WindDirDegrees,DateUTC
12:58 AM,22.6,16.0,76,30.24,10.0,ESE,8.1,-,N/A,,Clear,120,2013-12-28 07:58:00
1:58 AM,25.2,16.3,69,30.22,10.0,ENE,6.9,-,N/A,,Clear,70,2013-12-28 08:58:00
2:58 AM,20.8,15.6,80,30.24,10.0,WNW,2.3,-,N/A,,Clear,290,2013-12-28 09:58:00
3:58 AM,21.7,15.4,77,30.21,10.0,ESE,8.1,-,N/A,,Clear,110,2013-12-28 10:58:00
4:58 AM,19.9,15.1,81,30.22,10.0,ESE,8.1,-,N/A,,Clear,110,2013-12-28 11:58:00
5:58 AM,20.7,15.3,80,30.24,10.0,West,8.1,-,N/A,,Clear,280,2013-12-28 12:58:00
6:58 AM,20.1,14.7,80,30.24,10.0,SE,8.1,-,N/A,,Clear,130,2013-12-28 13:58:00
7:58 AM,20.8,14.7,77,30.23,10.0,ESE,6.9,-,N/A,,Clear,120,2013-12-28 14:58:00
8:34 AM,19.4,14.0,80,30.13,10.0,East,12.7,-,N/A,,Clear,90,2013-12-28 15:34:00
8:58 AM,20.3,15.3,81,30.25,10.0,NNW,6.9,-,N/A,,Clear,330,2013-12-28 15:58:00
9:58 AM,22.3,15.3,74,30.24,10.0,ESE,12.7,-,N/A,,Scattered Clouds,110,2013-12-28 16:58:00
10:58 AM,23.9,17.6,77,30.28,9.0,NNE,4.6,-,N/A,,Mostly Cloudy,30,2013-12-28 17:58:00
11:58 AM,27.1,19.4,73,30.25,10.0,Calm,Calm,-,N/A,,Clear,0,2013-12-28 18:58:00
12:58 PM,29.5,19.8,67,30.22,10.0,NNW,5.8,-,N/A,,Clear,330,2013-12-28 19:58:00
1:48 PM,28.4,17.6,64,30.15,10.0,NNW,6.9,-,N/A,,Mostly Cloudy,330,2013-12-28 20:48:00
1:58 PM,28.2,17.8,65,30.22,10.0,NW,3.5,-,N/A,,Mostly Cloudy,320,2013-12-28 20:58:00
2:28 PM,28.4,19.4,69,30.14,10.0,West,1.2,-,N/A,,Overcast,270,2013-12-28 21:28:00
2:58 PM,28.9,19.0,67,30.24,10.0,West,3.5,-,N/A,,Overcast,270,2013-12-28 21:58:00
3:03 PM,28.4,19.4,69,30.15,10.0,West,5.8,-,N/A,,Overcast,280,2013-12-28 22:03:00
3:23 PM,28.4,19.4,69,30.15,10.0,North,2.3,-,N/A,,Overcast,360,2013-12-28 22:23:00
3:58 PM,28.9,19.0,67,30.24,10.0,North,3.5,-,N/A,,Mostly Cloudy,350,2013-12-28 22:58:00
4:08 PM,28.4,19.4,69,30.16,10.0,West,5.8,-,N/A,,Scattered Clouds,270,2013-12-28 23:08:00
4:58 PM,23.2,19.4,85,30.30,5.0,SW,6.9,-,N/A,,Clear,230,2013-12-28 23:58:00
5:38 PM,23.0,19.4,86,30.20,7.0,SW,3.5,-,N/A,,Clear,230,2013-12-29 00:38:00
5:58 PM,22.6,20.1,90,30.30,6.0,WSW,2.3,-,N/A,,Clear,250,2013-12-29 00:58:00
6:53 PM,21.2,19.4,93,30.21,5.0,West,3.5,-,N/A,,Clear,260,2013-12-29 01:53:00
6:58 PM,21.6,19.4,91,30.32,5.0,West,5.8,-,N/A,,Clear,270,2013-12-29 01:58:00
7:03 PM,21.2,19.4,93,30.21,5.0,West,5.8,-,N/A,,Clear,270,2013-12-29 02:03:00
7:08 PM,21.2,19.4,93,30.21,4.0,West,5.8,-,N/A,,Clear,280,2013-12-29 02:08:00
7:18 PM,19.4,17.6,93,30.21,5.0,West,5.8,-,N/A,,Clear,270,2013-12-29 02:18:00
7:38 PM,19.4,17.6,93,30.23,5.0,West,3.5,-,N/A,,Clear,280,2013-12-29 02:38:00
7:53 PM,21.2,19.4,93,30.24,5.0,ENE,4.6,-,N/A,,Clear,60,2013-12-29 02:53:00
7:58 PM,21.7,20.3,94,30.35,5.0,ENE,4.6,-,N/A,,Clear,70,2013-12-29 02:58:00
8:03 PM,21.2,19.4,93,30.24,4.0,East,3.5,-,N/A,,Clear,90,2013-12-29 03:03:00
8:23 PM,21.2,17.6,86,30.24,1.8,Calm,Calm,-,N/A,,Clear,0,2013-12-29 03:23:00
8:33 PM,21.2,19.4,93,30.24,3.0,SSE,2.3,-,N/A,,Clear,150,2013-12-29 03:33:00
8:38 PM,19.4,17.6,93,30.24,2.5,SE,2.3,-,N/A,,Clear,140,2013-12-29 03:38:00
8:48 PM,19.4,19.4,100,30.24,3.0,Calm,Calm,-,N/A,,Clear,0,2013-12-29 03:48:00
8:58 PM,20.3,18.9,94,30.36,3.0,NE,1.2,-,N/A,,Clear,40,2013-12-29 03:58:00
9:08 PM,21.2,19.4,93,30.24,1.0,East,1.2,-,N/A,,Clear,90,2013-12-29 04:08:00
9:13 PM,19.4,19.4,100,30.24,0.8,Calm,Calm,-,N/A,,Clear,0,2013-12-29 04:13:00
9:23 PM,17.6,15.8,93,30.24,0.5,SSE,2.3,-,N/A,Fog,Light Freezing Fog,150,2013-12-29 04:23:00
9:33 PM,17.6,15.8,93,30.25,0.2,SE,3.5,-,N/A,Fog,Light Freezing Fog,130,2013-12-29 04:33:00
9:43 PM,17.6,15.8,93,30.25,0.5,South,4.6,-,N/A,Fog,Light Freezing Fog,180,2013-12-29 04:43:00
9:48 PM,17.6,15.8,93,30.25,0.8,South,4.6,-,N/A,,Clear,170,2013-12-29 04:48:00
9:53 PM,17.6,15.8,93,30.26,1.5,South,3.5,-,N/A,,Clear,180,2013-12-29 04:53:00
9:58 PM,17.6,15.8,93,30.38,3.0,South,4.6,-,N/A,,Clear,180,2013-12-29 04:58:00
10:33 PM,19.4,17.6,93,30.27,3.0,SW,4.6,-,N/A,,Clear,220,2013-12-29 05:33:00
10:43 PM,19.4,17.6,93,30.28,3.0,South,2.3,-,N/A,,Clear,190,2013-12-29 05:43:00
10:48 PM,19.4,17.6,93,30.28,3.0,SSW,2.3,-,N/A,,Clear,200,2013-12-29 05:48:00
10:53 PM,21.2,19.4,93,30.28,2.0,Calm,Calm,-,N/A,,Clear,0,2013-12-29 05:53:00
10:58 PM,21.2,19.4,93,30.38,1.2,SW,2.3,-,N/A,,Clear,230,2013-12-29 05:58:00
11:08 PM,21.2,19.4,93,30.28,1.0,West,1.2,-,N/A,,Clear,280,2013-12-29 06:08:00
11:13 PM,21.2,19.4,93,30.29,0.8,ENE,2.3,-,N/A,,Clear,60,2013-12-29 06:13:00
11:18 PM,19.4,19.4,100,30.28,1.2,ESE,2.3,-,N/A,,Clear,120,2013-12-29 06:18:00
11:23 PM,19.4,17.6,93,30.28,1.8,Calm,Calm,-,N/A,,Clear,0,2013-12-29 06:23:00
11:33 PM,19.4,15.8,86,30.28,0.5,South,2.3,-,N/A,Fog,Light Freezing Fog,170,2013-12-29 06:33:00
11:48 PM,17.6,15.8,93,30.28,0.8,ESE,2.3,-,N/A,,Clear,120,2013-12-29 06:48:00
11:53 PM,19.4,17.6,93,30.28,1.5,Calm,Calm,-,N/A,,Clear,0,2013-12-29 06:53:00
11:58 PM,20.3,18.7,93,30.37,1.2,ESE,2.3,-,N/A,,Clear,110,2013-12-29 06:58:00